User: anonymous   Login
Location: Mesa Vista Observatory
(35.5777°N, 105.6987°W)
Time: 11:54:34
(UTC-06:00)
Language:

Envisat - Orbit

View from above orbital plane
View from above orbital plane
View from above satellite
View from above satellite

Ground track
Ground track

The orbit data is extracted from the following two-line orbital elements,

1 27386U 02009A   19235.51692667 -.00000011  00000-0  99247-5 0  9998
2 27386  98.1476 253.1701 0001408  88.9301  85.5568 14.37955254915652
Epoch (UTC): 23 August 2019 12:24:22
Eccentricity: 0.0001408
inclination: 98.1476°
perigee height: 764 km
apogee height: 766 km
right ascension of ascending node: 253.1701°
argument of perigee: 88.9301°
revolutions per day: 14.37955254
mean anomaly at epoch: 85.5568°
orbit number at epoch: 91565

The dashed part of the orbit path shows where the satellite is in the earth's shadow,  

DLR